Regional Weather Roundup
Issued by NWS

Home | Current Version | Previous Version | Text Only | Print | Product List | Glossary On
Versions: 1 2 3 4 5 6 7 8 9 10 11 12 13 14 15 16 17 18 19 20 21 22 23 24 25 26 27 28 29 30 31 32 33 34 35 36 37 38 39 40 41 42 43 44 45 46 47 48 49 50
000
ASUS43 KDTX 120810
RWRMI
MICHIGAN HOURLY REGIONAL WEATHER ROUNDUP
NATIONAL WEATHER SERVICE DETROIT/PONTIAC MI
300 AM EST FRI FEB 12 2016

NOTE: "FAIR" INDICATES FEW OR NO CLOUDS BELOW 12,000 FEET WITH NO
SIGNIFICANT WEATHER AND/OR OBSTRUCTION TO VISIBILITY.

MIZ047>049-052>055-059>063-066>070-074>076-081>083-120900-
SOUTHEAST LOWER MICHIGAN

CITY           SKY/WX    TMP DP  RH WIND       PRES   REMARKS
ADRIAN         CLEAR     10   4  76 SW5       30.19F WCI   2
ALMA           CLOUDY    16  10  80 SW6       30.11F WCI   7
ANN ARBOR      CLEAR      5   2  87 SW5       30.17F WCI  -4
BAD AXE        CLOUDY    11   5  77 SW10      30.09F WCI  -3
CARO           CLOUDY     3   0  85 SW5       30.11F WCI  -6
DETROIT CITY   CLEAR     14   7  73 W5        30.18F WCI   6
DETROIT        CLEAR     13   6  74 SW8       30.19F WCI   2
FLINT          MOCLDY    11   5  77 SW9       30.13F WCI  -2
GROSSE ILE     CLEAR     14   7  73 CALM      30.18F
HILLSDALE      CLEAR     11   3  72 SW3       30.14F
HOWELL         PTCLDY    10   8  89 SW6       30.13F WCI   1

CITY           SKY/WX    TMP DP  RH WIND       PRES   REMARKS
JACKSON        CLEAR     11   4  73 SW7       30.15F WCI   0
LAMBERTVILLE   CLEAR     13   8  79 SW5       30.20F WCI   5
LANSING        MOCLDY    13   6  74 SW12      30.14F WCI  -1
LAPEER         FAIR       6   3  88 SW6       30.12F WCI  -4
MASON          CLEAR     10   6  82 CALM      30.14F
MONROE         CLEAR     11   6  78 W5        30.19F WCI   3
MT. CLEMENS    CLEAR     12   7  81 SW6       30.15F WCI   3
PONTIAC        PTCLDY     9   5  84 SW3       30.12F
PORT HOPE        N/A     12   5  73 SW8       30.06F WCI   0
PORT HURON     CLEAR      9   5  85 SW3       30.15F
TRI CITIES     CLOUDY    15   7  70 SW9       30.11F WCI   3
MIDLAND        CLOUDY    15   7  71 SW6       30.09F WCI   6
TROY           CLEAR     13   9  87 S5        30.17F WCI   5
SAGINAW HB     CLOUDY    14   9  79 SW9       30.11F WCI   2
$$
MIZ043>046-050>051-056>058-064>065-071>073-077>080-120900-
SOUTHWEST LOWER MICHIGAN

CITY           SKY/WX    TMP DP  RH WIND       PRES   REMARKS
BATTLE CREEK   PTCLDY    11   4  73 SW9       30.15F WCI  -2
BENTON HARBOR  CLOUDY    13   6  74 CALM      30.17F
BIG RAPIDS     CLOUDY    14   7  73 SW3       30.06F
COLDWATER      CLOUDY    10   4  77 SW5       30.16F WCI   2
FREMONT        CLOUDY    17   7  63 W6        30.10F WCI   9
HOLLAND        CLOUDY    22  10  60 W14       30.14F WCI   9
GRAND RAPIDS   CLOUDY    16   8  71 SW9       30.13F WCI   4
IONIA          CLOUDY    15   8  73 SW9       30.12F WCI   3
KALAMAZOO      CLOUDY    11   3  70 SW9       30.16F WCI  -2
LUDINGTON      CLOUDY    22   7  52 W14       30.08F WCI   9
MARSHALL       CLEAR     12   4  72 SW6       30.15F WCI   2
MOUNT PLEASANT CLOUDY    17   8  70 W8        30.08F WCI   6
MUSKEGON       CLOUDY    23   7  50 W14G20    30.12F WCI  11
SOUTH HAVEN    CLOUDY    15   9  75 S5        30.16F WCI   8
$$
MIZ016>042-120900-
NORTHERN LOWER MICHIGAN

CITY           SKY/WX    TMP DP  RH WIND       PRES   REMARKS
ALPENA         CLOUDY    15   6  67 SW13G20   29.97F WCI   1
BEAVER ISLAND  CLOUDY    18   6  59 W15G23    29.97F WCI   4
BELLAIRE       CLOUDY    21   8  56 W7G16     30.01S WCI  12
CADILLAC       CLOUDY    13   6  73 SW9       29.98F WCI   1
CHARLEVOIX     CLOUDY    20   8  60 W18G26    30.01F WCI   5
FRANKFORT      CLOUDY    20   8  58 W12G23    30.05F WCI   8
GAYLORD        CLOUDY    14   7  73 SW16      29.93F HAZE    WCI  -2
GRAYLING       CLOUDY    13   6  73 SW9       29.98F WCI   0
HARBOR SPRINGS CLOUDY    19   3  50 W9G17     29.96S WCI   8
HOUGHTON LAKE  CLOUDY    11   4  73 SW12      30.00F WCI  -3
MANISTEE       CLOUDY    21   3  45 W18G25    30.06F WCI   6
OSCODA         CLOUDY    13   6  73 SW14      30.03F WCI  -2
ROGERS CITY    LGT SNOW  15  11  83 SW12      29.97S WCI   2
TRAVERSE CITY  CLOUDY    18   6  59 W10       30.02F WCI   6
$$
MIZ007>008-015-120900-
EASTERN UPPER MICHIGAN

CITY           SKY/WX    TMP DP  RH WIND       PRES   REMARKS
KINROSS        PTCLDY    12   3  67 W10G20    29.89S WCI  -1
MACKINAC ISLAN CLOUDY    17   8  67 W20G26    29.92F WCI   0
NEWBERRY       CLOUDY    10   3  71 W14       29.92S WCI  -5
S. S. MARIE    LGT SNOW  14   6  70 SW18      29.87F WCI  -3
MUNISING         N/A     12   2  64 SW8       29.97F WCI   0
$$
MIZ004>006-011>014-085-120900-
CENTRAL UPPER MICHIGAN

CITY           SKY/WX    TMP DP  RH WIND       PRES   REMARKS
MANISTIQUE     PTCLDY    12   0  58 W14G21    29.98S WCI  -4
ESCANABA       CLEAR     12  -2  52 W10       30.02F WCI  -1
MENOMINEE      CLOUDY    16  -2  45 NW7       30.06F WCI   6
SAWYER-GWINN   CLOUDY     6   0  78 W8        29.95F WCI  -7
$$
MIZ001>003-009>011-084-120900-
WESTERN UPPER MICHIGAN

CITY           SKY/WX    TMP DP  RH WIND       PRES   REMARKS
IRON MOUNTAIN  MOCLDY    12  -3  51 W10       29.98F WCI  -1
HOUGHTON       LGT SNOW  12   5  73 NW18      29.95S WCI  -6
COPPER HARBOR    N/A     17   7  64 N26G33    29.96S WCI  -2
IRONWOOD       CLOUDY    10   3  72 W13       30.02S WCI  -5
$$

ABBREVIATIONS USED IN REMARKS
   TC - TEMPERATURE IN CELSIUS
  WCI - WIND CHILL INDEX
   HX - HEAT INDEX
  VSB - VISIBILITY




USA.gov is the U.S. government's official web portal to all federal, state and local government web resources and services.